| time (UTC) | temp F | wind direction | speed MPH | gust MPH | rain 1hr in | rain 24hr in | rain mn in | humidity % | barometer mb |
| 20260906220033 | 60 | 304 | 2.0 | 5.0 | 0.00 | 0.19 | 0.19 | 87 | 1018.9 |
| 20260906214535 | 60 | 322 | 2.0 | 5.0 | 0.00 | 0.19 | 0.19 | 88 | 1018.9 |
| 20260906213105 | 59 | 334 | 1.0 | 5.0 | 0.00 | 0.19 | 0.19 | 90 | 1018.8 |
| 20260906211533 | 59 | 335 | 0.0 | 3.0 | 0.00 | 0.19 | 0.19 | 90 | 1018.9 |
| 20260906210035 | 58 | 335 | 0.0 | 3.0 | 0.00 | 0.19 | 0.19 | 91 | 1018.9 |
| 20260906204606 | 58 | 118 | 0.0 | 3.0 | 0.00 | 0.19 | 0.19 | 92 | 1018.9 |
| 20260906203030 | 57 | 71 | 1.0 | 4.0 | 0.00 | 0.19 | 0.19 | 93 | 1018.9 |
| 20260906201533 | 57 | 347 | 2.0 | 3.0 | 0.00 | 0.19 | 0.19 | 93 | 1018.9 |
| 20260906200031 | 56 | 326 | 1.0 | 3.0 | 0.00 | 0.19 | 0.19 | 93 | 1019.0 |
| 20260906194529 | 56 | 326 | 1.0 | 3.0 | 0.00 | 0.19 | 0.19 | 94 | 1019.0 |
| 20260906191531 | 56 | 337 | 0.0 | 2.0 | 0.00 | 0.19 | 0.19 | 94 | 1019.1 |
| 20260906184533 | 56 | 349 | 2.0 | 4.0 | 0.00 | 0.19 | 0.19 | 94 | 1019.1 |
| 20260906183037 | 56 | 360 | 0.0 | 2.0 | 0.00 | 0.19 | 0.19 | 95 | 1019.2 |
| 20260906180032 | 55 | 22 | 0.0 | 1.0 | 0.00 | 0.19 | 0.19 | 96 | 1019.2 |
| 20260906174530 | 55 | 22 | 1.0 | 2.0 | 0.00 | 0.19 | 0.19 | 97 | 1019.2 |
| 20260906173035 | 55 | 22 | 1.0 | 2.0 | 0.00 | 0.19 | 0.19 | 98 | 1019.2 |
| 20260906170033 | 55 | 340 | 1.0 | 3.0 | 0.00 | 0.19 | 0.19 | 98 | 1019.1 |
| 20260906164533 | 55 | 299 | 0.0 | 3.0 | 0.00 | 0.19 | 0.19 | 98 | 1019.1 |
| 20260906163035 | 55 | 168 | 0.0 | 0.0 | 0.00 | 0.19 | 0.19 | 98 | 1019.0 |
| 20260906161644 | 55 | 157 | 0.0 | 0.0 | 0.02 | 0.19 | 0.19 | 98 | 1019.0 |
| 20260906160035 | 55 | 157 | 0.0 | 0.0 | 0.07 | 0.19 | 0.19 | 98 | 1019.0 |
| 20260906154530 | 54 | 157 | 0.0 | 3.0 | 0.09 | 0.19 | 0.19 | 98 | 1019.0 |
| 20260906153036 | 54 | 127 | 1.0 | 5.0 | 0.13 | 0.19 | 0.17 | 97 | 1018.8 |
| 20260906150029 | 54 | 90 | 0.0 | 0.0 | 0.08 | 0.12 | 0.10 | 97 | 1018.7 |
| 20260906144532 | 54 | 107 | 1.0 | 3.0 | 0.07 | 0.10 | 0.06 | 97 | 1018.4 |
| 20260906143036 | 54 | 135 | 0.0 | 0.0 | 0.04 | 0.06 | 0.04 | 97 | 1018.1 |
| 20260906140032 | 54 | 157 | 0.0 | 4.0 | 0.02 | 0.04 | 0.03 | 96 | 1017.7 |
| 20260906134531 | 54 | 161 | 1.0 | 3.0 | 0.01 | 0.03 | 0.02 | 96 | 1017.5 |
| 20260906133035 | 54 | 129 | 1.0 | 4.0 | 0.00 | 0.02 | 0.02 | 96 | 1017.5 |
| 20260906131536 | 54 | 146 | 0.0 | 3.0 | 0.00 | 0.02 | 0.02 | 96 | 1017.4 |
| 20260906130031 | 54 | 144 | 0.0 | 3.0 | 0.00 | 0.02 | 0.02 | 96 | 1017.3 |
| 20260906124532 | 54 | 45 | 0.0 | 1.0 | 0.00 | 0.02 | 0.02 | 95 | 1017.4 |
| 20260906123031 | 54 | 45 | 0.0 | 0.0 | 0.00 | 0.02 | 0.02 | 95 | 1017.4 |
| 20260906121607 | 55 | 82 | 0.0 | 2.0 | 0.00 | 0.02 | 0.02 | 95 | 1017.5 |
| 20260906120032 | 55 | 135 | 2.0 | 5.0 | 0.00 | 0.02 | 0.02 | 95 | 1017.6 |
| 20260906114606 | 55 | 149 | 2.0 | 5.0 | 0.00 | 0.02 | 0.02 | 95 | 1017.6 |
| 20260906113032 | 54 | 139 | 1.0 | 5.0 | 0.00 | 0.02 | 0.02 | 95 | 1017.6 |
| 20260906111530 | 54 | 143 | 2.0 | 4.0 | 0.00 | 0.02 | 0.02 | 95 | 1017.6 |
| 20260906110142 | 54 | 130 | 2.0 | 5.0 | 0.00 | 0.02 | 0.02 | 95 | 1017.6 |
| 20260906104535 | 54 | 114 | 1.0 | 3.0 | 0.01 | 0.02 | 0.02 | 95 | 1017.8 |
| 20260906103033 | 54 | 145 | 1.0 | 3.0 | 0.01 | 0.02 | 0.02 | 94 | 1018.0 |
| 20260906101533 | 54 | 118 | 0.0 | 3.0 | 0.01 | 0.02 | 0.02 | 94 | 1018.1 |
| 20260906100029 | 55 | 96 | 0.0 | 2.0 | 0.02 | 0.02 | 0.01 | 93 | 1018.2 |
| 20260906093030 | 55 | 142 | 1.0 | 3.0 | 0.01 | 0.01 | 0.01 | 91 | 1018.0 |
| 20260906091529 | 55 | 157 | 1.0 | 2.0 | 0.01 | 0.01 | 0.00 | 90 | 1018.1 |
| 20260906090033 | 54 | 111 | 1.0 | 4.0 | 0.00 | 0.00 | 0.00 | 89 | 1018.0 |
| 20260906083034 | 55 | 145 | 3.0 | 7.0 | 0.00 | 0.00 | 0.00 | 86 | 1017.9 |
| 20260906081608 | 55 | 145 | 4.0 | 7.0 | 0.00 | 0.00 | 0.00 | 85 | 1017.9 |
| 20260906080037 | 55 | 139 | 5.0 | 7.0 | 0.00 | 0.00 | 0.00 | 85 | 1017.9 |
| 20260906074529 | 55 | 148 | 5.0 | 7.0 | 0.00 | 0.00 | 0.00 | 84 | 1017.9 |
| 20260906073032 | 56 | 140 | 4.0 | 7.0 | 0.00 | 0.00 | 0.00 | 84 | 1018.1 |
| 20260906071605 | 56 | 153 | 4.0 | 8.0 | 0.00 | 0.00 | 0.00 | 83 | 1018.1 |
| 20260906070034 | 56 | 148 | 5.0 | 7.0 | 0.00 | 0.00 | 0.00 | 83 | 1018.1 |
| 20260906064605 | 55 | 142 | 5.0 | 8.0 | 0.00 | 0.00 | 0.00 | 85 | 1018.2 |
| 20260906063107 | 55 | 143 | 6.0 | 9.0 | 0.00 | 0.00 | 0.00 | 85 | 1018.2 |
| 20260906060035 | 55 | 152 | 5.0 | 9.0 | 0.00 | 0.00 | 0.00 | 85 | 1018.3 |
| 20260906054537 | 56 | 149 | 6.0 | 9.0 | 0.00 | 0.00 | 0.00 | 84 | 1018.3 |
| 20260906050031 | 58 | 147 | 6.0 | 10.0 | 0.00 | 0.00 | 0.00 | 80 | 1018.5 |
| 20260906044535 | 58 | 150 | 6.0 | 11.0 | 0.00 | 0.00 | 0.00 | 80 | 1018.5 |
| 20260906043134 | 58 | 148 | 7.0 | 12.0 | 0.00 | 0.00 | 0.00 | 80 | 1018.4 |
| 20260906041541 | 58 | 149 | 6.0 | 9.0 | 0.00 | 0.00 | 0.00 | 80 | 1018.4 |
| 20260906033032 | 59 | 148 | 7.0 | 10.0 | 0.00 | 0.00 | 0.00 | 80 | 1017.9 |
| 20260906031533 | 60 | 147 | 7.0 | 11.0 | 0.00 | 0.00 | 0.00 | 80 | 1017.8 |
| 20260906024533 | 61 | 154 | 7.0 | 10.0 | 0.00 | 0.00 | 0.00 | 78 | 1017.7 |
| 20260906021532 | 65 | 143 | 4.0 | 9.0 | 0.00 | 0.00 | 0.00 | 68 | 1017.5 |
| 20260906020029 | 67 | 163 | 1.0 | 5.0 | 0.00 | 0.00 | 0.00 | 59 | 1017.5 |
| 20260906013031 | 67 | 250 | 0.0 | 3.0 | 0.00 | 0.00 | 0.00 | 58 | 1017.5 |
| 20260906011537 | 68 | 257 | 1.0 | 4.0 | 0.00 | 0.00 | 0.00 | 58 | 1017.6 |
| 20260906010036 | 68 | 179 | 2.0 | 5.0 | 0.00 | 0.00 | 0.00 | 59 | 1017.8 |
| 20260906003031 | 66 | 206 | 2.0 | 8.0 | 0.00 | 0.00 | 0.00 | 60 | 1018.1 |
| 20260906000028 | 68 | 233 | 1.0 | 5.0 | 0.00 | 0.00 | 0.00 | 53 | 1017.9 |
| 20260905234530 | 69 | 249 | 0.0 | 2.0 | 0.00 | 0.00 | 0.00 | 52 | 1017.7 |
| 20260905233035 | 70 | 243 | 1.0 | 3.0 | 0.00 | 0.00 | 0.00 | 52 | 1017.6 |
| 20260905231535 | 70 | 282 | 1.0 | 5.0 | 0.00 | 0.00 | 0.00 | 50 | 1017.6 |
| 20260905230035 | 72 | 265 | 2.0 | 7.0 | 0.00 | 0.00 | 0.00 | 48 | 1017.5 |
| 20260905224531 | 72 | 308 | 4.0 | 10.0 | 0.00 | 0.00 | 0.00 | 45 | 1017.4 |
| 20260905223035 | 71 | 323 | 5.0 | 9.0 | 0.00 | 0.00 | 0.00 | 45 | 1017.4 |